Location: Jastrzębia Góra
(54.8312°N, 18.3037°E)
Time: 12:16:44
(UTC+01:00)

ISS - Pass Details

Date: 26 January 2019
Orbit: 403 x 411 km, 51.6° (Epoch: 18 February)

Event Time Altitude Azimuth Distance (km) Brightness Sun altitude
Rises 17:38:33 0° 211° (SSW) 2,326 0.8 -12.3°
Reaches altitude 10° 17:41:07 10° 190° (S) 1,471 -0.7 -12.6°
Maximum altitude 17:43:19 17° 148° (SSE) 1,133 -1.8 -12.9°
Enters shadow 17:44:28 14° 123° (ESE) 1,237 -1.8 -13.1°
